Location: Newark
(52.2090°N, 4.1550°W)
Time: 13:14:39
(UTC+00:00)

Vanguard 3 - All Passes

Search period start: 23 September 2019 00:00
Search period end: 03 October 2019 00:00
Orbit: 508 x 3263 km, 33.4° (Epoch: 22 September)

Date Brightness Start Highest point End Pass type
(mag) Time Alt. Az. Time Alt. Az. Time Alt. Az.
23 Sep - 05:21:23 10° SSE 05:27:24 14° SE 05:34:21 10° ESE visible
23 Sep - 07:26:16 10° SSW 07:38:37 32° SSE 07:54:18 10° E daylight
23 Sep - 09:36:43 10° WSW 09:52:03 41° S 10:09:24 10° ESE daylight
23 Sep - 11:50:02 10° WSW 12:06:03 35° SSW 12:21:32 10° SE daylight
23 Sep - 14:07:15 10° W 14:18:35 19° SW 14:28:49 10° S daylight
24 Sep - 06:14:08 10° S 06:23:59 24° SE 06:36:40 10° E daylight
24 Sep - 08:22:41 10° SW 08:36:21 38° SSE 08:53:26 10° ESE daylight
24 Sep - 10:34:34 10° WSW 10:50:18 39° S 11:07:12 10° SE daylight
24 Sep - 12:49:22 10° W 13:03:46 27° SSW 13:17:17 10° SSE daylight
25 Sep - 05:04:01 10° SSE 05:10:03 14° SE 05:17:16 10° ESE visible
25 Sep - 07:09:31 10° SSW 07:21:10 32° SSE 07:36:40 10° ESE daylight
25 Sep - 09:19:56 10° WSW 09:34:29 41° S 09:51:54 10° ESE daylight
25 Sep - 11:33:05 10° WSW 11:48:23 34° SSW 12:04:03 10° SSE daylight
25 Sep - 13:50:35 10° WSW 14:00:55 17° SW 14:10:41 10° SSW daylight
26 Sep - 05:57:22 10° SSW 06:06:39 24° SE 06:19:03 10° E daylight
26 Sep - 08:06:03 10° SW 08:18:54 38° SSE 08:35:46 10° ESE daylight
26 Sep - 10:17:47 10° WSW 10:32:41 38° SSW 10:49:37 10° SE daylight
26 Sep - 12:32:31 10° W 12:46:04 25° SW 12:59:29 10° S daylight
27 Sep - 04:46:59 10° SSE 04:52:49 15° SE 04:59:58 10° ESE visible
27 Sep - 06:52:58 10° SW 07:03:50 32° SSE 07:18:55 10° ESE daylight
27 Sep - 09:03:20 10° WSW 09:16:58 39° S 09:34:12 10° ESE daylight
27 Sep - 11:16:19 10° WSW 11:30:44 31° SSW 11:46:17 10° SSE daylight
27 Sep - 13:34:21 10° WSW 13:43:15 15° SW 13:51:59 10° SSW daylight
28 Sep - 05:40:48 10° SSW 05:49:26 24° SSE 06:01:21 10° ESE visible
28 Sep - 07:49:35 10° SW 08:01:32 37° S 08:17:58 10° ESE daylight
28 Sep - 10:01:11 10° WSW 10:15:08 36° SSW 10:31:50 10° SE daylight
28 Sep - 12:15:55 10° WSW 12:28:25 23° SW 12:41:20 10° S daylight
29 Sep - 04:30:14 10° SSE 04:35:43 15° SE 04:42:34 10° ESE visible
29 Sep - 06:36:34 10° SW 06:46:37 32° SSE 07:01:05 10° ESE daylight
29 Sep - 08:46:52 10° WSW 08:59:33 38° S 09:16:21 10° SE daylight
29 Sep - 10:59:45 10° WSW 11:13:08 29° SSW 11:28:17 10° SSE daylight
29 Sep - 13:18:51 10° WSW 13:25:38 13° SW 13:32:26 10° SSW daylight
30 Sep - 05:24:24 10° SSW 05:32:21 24° SSE 05:43:36 10° ESE visible
30 Sep - 07:33:15 10° SW 07:44:17 36° S 08:00:04 10° ESE daylight
30 Sep - 09:44:44 10° WSW 09:57:40 34° SSW 10:13:50 10° SE daylight
30 Sep - 11:59:38 10° WSW 12:10:49 20° SW 12:22:48 10° S daylight
01 Oct - 04:13:41 10° S 04:18:44 15° SE 04:25:06 10° ESE visible
01 Oct - 06:20:18 10° SW 06:29:33 31° SSE 06:43:11 10° ESE daylight
01 Oct - 08:30:33 10° WSW 08:42:15 36° S 08:58:20 10° SE daylight
01 Oct - 10:43:23 10° WSW 10:55:38 26° SSW 11:10:00 10° SSE daylight
01 Oct - 13:05:37 10° SW 13:08:03 10° SW 13:10:31 10° SW daylight
02 Oct - 05:08:09 10° SSW 05:15:25 24° SSE 05:25:49 10° ESE visible
02 Oct - 07:17:03 10° SW 07:27:11 35° S 07:42:03 10° ESE daylight
02 Oct - 09:28:28 10° WSW 09:40:18 31° SSW 09:55:38 10° SE daylight
02 Oct - 11:43:46 10° WSW 11:53:17 17° SW 12:03:45 10° S daylight
